Location: San Zavedro
(45.0667°N, 10.3667°E)
Time: 22:29:28
(UTC+00:00)

Daily predictions for brighter satellites

Satellite Brightness Start Highest point End
(mag) Time Altitude Azimuth Time Altitude Azimuth Time Altitude Azimuth
Meteor 1-21 4.3 17:31:44 10° N 17:37:22 90° W 17:42:58 10° S
Lacrosse 5 rocket 3.7 17:36:30 10° NW 17:39:27 18° N 17:42:29 10° NE
Cosmos 1975 Rocket 3.0 17:36:20 10° N 17:40:41 89° E 17:45:00 10° S
HJ-1C 4.3 17:41:09 10° SE 17:43:59 27° ENE 17:46:51 10° N
COSMO-SKYMED 1 3.1 17:46:07 10° N 17:50:26 64° WNW 17:54:44 10° SSW
Shenzhou-11 Module 3.5 17:49:36 10° S 17:50:33 12° SSE 17:51:31 10° SE
Ariane Rocket 4.2 17:48:44 10° ESE 17:52:35 22° ENE 17:56:27 10° NNE
H-2A R/B 2.3 17:48:32 10° SE 17:53:17 46° ENE 17:58:11 10° N
Nadezhda 4 Rocket 4.4 17:47:40 10° N 17:53:26 41° ENE 17:59:12 10° SE
Cosmos 1689 Rocket 4.4 17:51:31 10° N 17:54:12 30° WNW 17:56:50 10° SW
SJ 16-02 4.3 17:52:24 10° W 17:55:08 16° NW 17:57:53 10° NNW
Exosat Rocket 4.2 17:52:32 10° SSE 17:57:20 31° ESE 18:01:43 10° NE
Cosmos 2263 Rocket 3.8 17:53:17 10° WSW 17:58:24 36° NW 18:03:33 10° NNE
USA 116 3.7 17:56:59 10° NNE 18:00:40 61° ESE 18:04:49 10° S
Cosmos 1939 Rocket 4.2 17:57:21 10° S 18:01:19 45° W 18:05:19 10° NNW
Cosmos 1844 Rocket 2.7 17:57:11 10° S 18:02:39 60° ESE 18:08:09 10° NNE
Cosmos 1072 Rocket 4.5 17:56:33 10° S 18:02:47 74° E 18:09:10 10° NNE
Cosmos 372 Rocket 4.2 17:59:17 10° SSW 18:04:31 76° WNW 18:09:45 10° NNE
Cosmos 1707 2.7 18:01:56 10° N 18:05:47 85° W 18:09:36 10° S
Cosmos 1626 4.0 18:05:12 10° NE 18:07:07 13° ENE 18:07:28 13° ENE
Cosmos 2278 Rocket4.218:10:00ENE18:10:00ENE18:03:58SE
NOSS 3-2 (C) 4.1 18:00:15 10° NW 18:07:40 65° NE 18:16:05 10° SE
CZ-2C R/B 3.5 18:06:19 10° SW 18:07:48 12° SSW 18:09:15 10° S
Cosmos 1844 3.8 18:04:33 10° S 18:10:06 56° ESE 18:15:36 10° NNE
Cosmos 2034 Rocket 4.1 18:04:09 10° SSE 18:10:19 56° E 18:16:29 10° NNE
NOSS 3-4 (A) 3.9 18:06:24 10° S 18:11:36 34° ESE 18:17:03 10° NE
ISS -2.3 18:08:34 10° W 18:11:41 33° NNW 18:14:48 10° NE
NOSS 3-4 (C) 3.9 18:06:30 10° S 18:11:42 33° ESE 18:17:09 10° NE
USA 186 3.0 18:11:03 18° ESE 18:12:22 23° ENE 18:15:03 10° NNE
Meteor 2-5 Rocket 4.5 18:08:31 10° N 18:13:37 33° ENE 18:18:15 12° SE
Meteor 1-12 Rocket 4.3 18:07:50 10° S 18:13:44 86° E 18:19:33 10° NNE
Cosmos 1300 Rocket 3.6 18:14:39 10° S 18:19:03 84° W 18:23:32 10° N
Okean 1 Rocket 3.6 18:18:14 10° SSE 18:22:19 36° E 18:26:26 10° NNE
Cosmos 2298 Rocket 4.3 18:20:29 10° SSW 18:25:48 74° WNW 18:31:09 10° NNE
Resurs 01 Rocket 3.5 18:25:52 13° ENE 18:26:00 13° ENE 18:28:10 10° NNE
CENTAUR R/B 3.2 18:18:43 10° NW 18:26:48 77° NE 18:34:46 14° SE
Cosmos 1833 Rocket 3.9 18:23:19 10° N 18:27:56 25° NE 18:30:12 19° E
CSL-04 Debris 4.4 18:24:02 10° S 18:29:24 71° WSW 18:34:48 10° NNW
CSL-04 Rocket 4.0 18:25:55 10° S 18:31:21 72° WSW 18:36:53 10° NNW
Cosmos 1766 3.7 18:29:42 10° SSE 18:33:19 37° E 18:36:59 10° NNE
Okean 2 Rocket 3.8 18:29:14 10° SSW 18:33:39 58° W 18:38:04 10° N
ATLAS 2AS CENTAUR R/B 3.2 18:26:27 10° S 18:34:00 50° ESE 18:41:33 10° NE
YAOGAN 1 4.0 18:30:03 10° SSW 18:34:06 39° W 18:38:11 10° NNW
Cosmos 1025 Rocket 3.6 18:30:51 10° NNW 18:35:12 61° W 18:39:31 10° S
Cosmos 1634 Rocket 4.3 18:32:26 10° SSE 18:38:07 41° E 18:43:52 10° NNE
ATLAS 3B R/B 3.4 18:32:35 10° NNW 18:38:54 38° NE 18:42:34 23° E
SPOT 3 Rocket 4.5 18:40:10 25° E 18:41:24 28° ENE 18:45:43 10° N
Abrixas rocket 1.6 18:39:00 10° WNW 18:41:51 89° NE 18:42:11 66° ESE
CREW DRAGON DEMO-1 DEB 2.6 18:40:46 10° WNW 18:43:48 85° NNE 18:44:16 61° ESE
Cosmos 1536 Rocket 4.0 18:40:34 10° NNW 18:44:59 65° W 18:49:25 10° S
Cosmos 1125 Rocket 3.6 18:41:07 10° SSW 18:46:25 79° WNW 18:51:47 10° NNE
EP 2 4.4 18:44:49 10° SW 18:47:49 82° SE 18:48:34 47° NE
Resurs 1-3 4.4 18:48:54 30° ENE 18:49:08 31° ENE 18:53:00 10° N
SJ-6B 2.8 18:48:32 43° ESE 18:49:18 52° ENE 18:53:00 10° N
Cosmos 1892 Rocket 4.5 18:47:55 10° NNE 18:51:25 29° ENE 18:51:25 29° ENE
CZ-4 R/B 4.1 18:48:39 10° SW 18:51:51 21° W 18:55:04 10° NW
CZ-2C R/B 4.4 18:48:46 10° SSW 18:53:49 42° W 18:59:09 10° NNW
Cosmos 2195 Rocket 4.4 18:49:10 10° N 18:55:23 67° E 19:00:07 18° SSE
USA 238 DEB 4.4 18:48:51 10° NW 18:55:55 56° WSW 19:03:13 10° SSE
USA 238 4.4 18:48:57 10° NW 18:56:01 57° WSW 19:03:18 10° SSE
Cosmos 2285 Rocket 4.0 18:50:47 10° SSW 18:57:06 86° WNW 19:03:30 10° NNE
Cosmos 1674 3.0 18:53:32 10° NNW 18:57:22 65° W 19:00:17 16° S
Cosmos 2026 Rocket 4.0 18:51:56 10° N 18:58:15 61° ENE 19:02:16 23° SSE
Cosmos 1092 Rocket 3.9 18:52:16 10° N 18:58:27 79° E 19:04:17 12° SSE
FREGAT/IRIS 4.4 19:04:41 21° N 19:04:41 21° N 19:05:44 10° N
MOS 1 Rocket 4.1 18:59:12 10° N 19:03:25 48° WNW 19:07:31 10° SW
Cosmos 1428 Rocket 4.4 19:00:35 10° N 19:06:50 67° E 19:10:06 29° SSE
TSX-5 3.9 19:04:35 10° SSW 19:08:24 89° NW 19:13:18 10° NNE
ARGOS 3.9 19:04:07 10° S 19:09:19 52° W 19:14:35 10° NNW
CZ-2C R/B 2.7 19:08:11 10° NNE 19:13:47 88° ESE 19:19:25 10° SSW
Cosmos 1340 Rocket 3.6 19:15:11 38° NNE 19:15:11 38° NNE 19:17:47 10° NNE
Cosmos 2279 Rocket 4.1 19:12:59 40° SE 19:14:37 49° E 19:20:36 10° NNE
Cosmos 1733 3.3 19:13:48 31° SSW 19:15:31 76° W 19:19:21 10° N
MOS 1 4.3 19:13:05 24° SSE 19:16:38 85° WSW 19:22:23 10° NNW
Lacrosse 5 rocket 3.3 19:16:30 10° NW 19:19:59 22° NNE 19:20:43 21° NNE
Cosmos 2082 Rocket 2.9 19:16:02 10° N 19:21:09 34° NE 19:21:17 34° ENE
Cosmos 2098 Rocket 4.5 19:15:18 10° N 19:21:19 37° ENE 19:21:19 37° ENE
DMSP B5D2-2 4.0 19:18:17 10° NNE 19:23:37 88° WNW 19:28:54 10° SSW
BREEZE-M DEB (TANK) 4.2 19:20:15 10° W 19:23:55 45° SSW 19:27:36 28° SSE
BREEZE-M R/B 3.7 19:15:22 10° WSW 19:23:57 62° NNW 19:24:25 56° NNE
OBJECT-B 2.7 19:28:48 26° NNW 19:28:48 26° NNW 19:30:21 10° NNW
Cosmos 2142 Rocket 4.3 19:24:37 26° S 19:28:17 72° E 19:34:29 10° NNE
Ariane Rocket 3.6 19:28:05 22° S 19:31:11 53° W 19:36:10 10° NNW
H-2A R/B 4.2 19:28:59 10° SW 19:32:57 23° W 19:37:00 10° NW
Milstar 3 Cent rocket 4.2 19:29:38 10° SW 19:32:39 15° S 19:32:39 15° S
USA 234 4.3 19:38:14 27° S 19:38:14 27° S 19:41:25 10° SSW
Cosmos 1626 3.4 19:39:05 10° NNW 19:42:02 40° WNW 19:42:02 40° WNW
USA 186 4.3 19:42:34 19° WSW 19:43:02 19° W 19:45:28 10° NW
Okean 1-7 Rocket 4.3 19:38:30 10° N 19:41:51 47° N 19:41:51 47° N
COSMOS 2406 3.2 19:41:34 10° NNW 19:47:14 73° WSW 19:47:56 64° SSW
ISS -1.2 19:46:12 10° NW 19:47:46 20° NNW 19:47:46 20° NNW
Cosmos 2278 Rocket 2.3 19:44:49 10° SSW 19:51:32 61° NNE 19:56:10 10° NNE
Lacrosse 4 Rocket 3.1 19:50:48 10° NNW 19:52:52 28° N 19:52:52 28° N
Cosmos 909 Rocket 4.1 19:53:38 10° NNW 19:59:55 62° NE 19:59:55 62° NE
Cosmos 2266 Rocket 4.3 19:55:51 10° N 20:00:33 49° NNE 20:00:33 49° NNE
Resurs 01 Rocket 2.8 20:03:26 40° NNW 20:03:26 40° NNW 20:06:22 10° NNW
NOSS 3-4 (A) 4.2 19:56:28 10° WSW 20:02:13 50° NW 20:08:24 10° NNE
NOSS 3-4 (C) 4.2 19:56:33 10° WSW 20:02:19 50° NW 20:08:31 10° NNE
Meteor 2-19 Rocket 4.3 19:57:35 10° N 20:03:43 84° W 20:03:47 83° WSW
Cosmos 1833 Rocket 3.0 20:06:43 10° NNW 20:11:54 60° W 20:11:54 60° W
Cosmos 2251 Rocket 4.2 20:09:48 10° NNW 20:13:44 50° NNW 20:13:44 50° NNW
ATLAS 2AS CENTAUR R/B 3.8 20:17:25 10° WSW 20:25:07 50° NW 20:32:43 10° NNE
ATLAS 3B R/B 3.0 20:23:10 10° NW 20:29:50 60° WSW 20:29:50 60° WSW
Cosmos 1655 Rocket 4.5 20:32:14 10° NNW 20:37:50 56° WNW 20:37:50 56° WNW
Lacrosse 5 rocket 4.3 20:55:25 10° NW 20:56:20 16° NW 20:56:20 16° NW
Cosmos 2082 Rocket 3.9 21:00:04 10° NW 21:03:08 29° WNW 21:03:08 29° WNW
